www.pogodaiklimat.ru

Погода и климат >> Архив погоды >> Норвегия >> Флурё аэропорт


ПОГОДА во Флурё аэропорту

  • Прогноз погоды во Флурё аэропорту
  • Монитор погоды во Флурё аэропорту

АРХИВ ПОГОДЫ во Флурё аэропорту

Время (UTC), дата Ветер
(напр.,м/с)
 
Видим.   Явления Облачность Т
(С)
Тd
(С)
f
(%)
Тe
(С)
Тes
(С)
Комфортность P
(гПа)
Po
(гПа)
Тmin
(С)
Tmax
(С)
R
(мм)
R24
(мм)
S
(см)
22 19.03 ЮЗ 1
{4}
н/о н/о +0.5 -0.1 96 -2 -2 1013.3 974.1
23 19.03 З 2
{7}
н/о н/о +1.6 +0.6 93 -2 -2 1012.8 973.8
00 20.03 Ю 1
{12}
н/о н/о +2.1 +1.4 95 0 0 1013.0 974.0
01 20.03 З 1
{3}
н/о н/о +2.9 +2.2 95 +1 +1 1013.1 974.2
02 20.03 З 2
{6}
н/о н/о +3.5 +2.3 92 0 0 1013.1 974.3
03 20.03 З 3
{6}
н/о н/о +3.7 +2.1 89 -0 -0 1013.4 974.6
04 20.03 З 3
{6}
н/о н/о +3.8 +2.2 89 -0 -0 1013.4 974.6
05 20.03 З 4
{8}
н/о н/о +4.0 +1.9 86 -1 -1 1014.0 975.2
06 20.03 ЮЗ 2
{14}
н/о н/о +2.8 +1.5 91 -0 -0 1014.9 975.9 +0.5 +4.2
07 20.03 З 5
{9}
н/о н/о +2.9 +0.6 85 -2 -2 1015.5 976.5
08 20.03 ЮЗ 1
{8}
н/о н/о +2.2 +1.2 93 0 0 1016.5 977.4
09 20.03 ЮЗ 4
{9}
н/о н/о +1.9 +0.9 93 -3 -3 1017.7 978.5
10 20.03 Ю 2
{5}
н/о н/о +2.2 +1.3 94 -1 -1 1018.8 979.6
11 20.03 ЮЗ 2
{4}
н/о н/о +4.9 +2.4 84 +2 +2 1018.9 980.1
12 20.03 ЮЗ 4
{9}
н/о н/о +5.0 +2.4 83 +1 +1 1019.3 980.4
13 20.03 ЮЗ 2
{7}
н/о н/о +5.0 +2.9 86 +2 +2 1019.9 981.1
14 20.03 З 2
{4}
н/о н/о +4.7 +2.4 85 +2 +2 1019.8 981.0
15 20.03 Ю 3
{5}
н/о н/о +4.8 +1.8 81 +1 +1 1020.1 981.3
16 20.03 ЮЗ 3
{7}
н/о н/о +4.7 +1.6 80 +1 +1 1019.8 980.9
17 20.03 Ю 3
{5}
н/о н/о +4.1 +1.7 84 0 0 1019.7 980.7
18 20.03 ЮЗ 3
{8}
н/о н/о +4.1 +1.7 84 0 0 1018.7 979.7 +1.4 +5.8
19 20.03 Ю 5
{9}
н/о н/о +3.0 +2.0 93 -2 -2 1018.2 979.1
20 20.03 ЮЗ 4
{7}
н/о н/о +2.9 +2.2 95 -2 -2 1017.5 978.5
21 20.03 Ю 5
{7}
н/о н/о +2.2 +1.5 95 -4 -4 1017.1 978.0
22 20.03 ЮЗ 3
{7}
н/о н/о +1.5 +0.9 96 -3 -3 1016.1 976.9
23 20.03 ЮЗ 2
{5}
н/о н/о +1.0 +0.3 95 -3 -3 1015.3 976.1
00 21.03 ЮЗ 3
{9}
н/о н/о +2.6 +1.6 93 -2 -2 1013.6 974.6
01 21.03 ЮЗ 3
{7}
н/о н/о +4.4 +3.7 95 +1 +1 1012.3 973.7
02 21.03 ЮЗ 2
{5}
н/о н/о +4.8 +4.4 97 +2 +2 1011.9 973.4
03 21.03 ЮЗ 2
{3}
н/о н/о +5.9 +5.5 97 +3 +3 1011.9 973.5
04 21.03 З 2
{4}
н/о н/о +6.1 +5.7 97 +3 +3 1012.1 973.7
05 21.03 З 5
{8}
н/о н/о +5.7 +5.3 97 +1 +1 1013.3 974.8
06 21.03 З 3
{8}
н/о н/о +4.8 +4.2 96 +1 +1 1014.7 976.0 +0.9 +6.2
07 21.03 З 3
{6}
н/о н/о +4.6 +4.0 96 +1 +1 1016.0 977.2
08 21.03 ЮЗ 1
{5}
н/о н/о +4.3 +3.7 96 +3 +3 1016.7 977.9
09 21.03 З 4
{6}
н/о н/о +3.9 +3.2 95 -1 -1 1017.9 978.9
10 21.03 Ю 2
{5}
н/о н/о +3.7 +2.7 93 +1 +1 1018.7 979.7
11 21.03 ЮЗ 2
{4}
н/о н/о +4.6 +3.4 92 +2 +2 1019.5 980.6
12 21.03 З 3
{6}
н/о н/о +4.8 +3.5 91 +1 +1 1020.2 981.4
13 21.03 З 3
{10}
н/о н/о +3.6 +2.3 91 -0 -0 1021.8 982.7
14 21.03 З 4
{6}
н/о н/о +4.6 +1.6 81 0 0 1022.5 983.5
15 21.03 З 4
{9}
н/о н/о +4.1 +1.8 85 -0 -0 1023.5 984.4
17 21.03 ЮЗ 2
{6}
н/о н/о +3.8 +0.5 79 +1 +1 1025.8 986.6
18 21.03 ЮЗ 1
{10}
н/о н/о +2.3 -0.1 84 +1 +1 1026.2 986.7 +2.3 +5.5
19 21.03 ЮЗ 1
{3}
н/о н/о +1.6 -0.6 85 -0 -0 1026.7 987.1
20 21.03 ЮЗ 2
{3}
н/о н/о +2.6 0.0 83 -1 -1 1027.8 988.3
21 21.03 Ю 2
{4}
н/о н/о +2.2 +0.1 86 -1 -1 1028.6 989.1
22 21.03 Ю 1
{3}
н/о н/о +2.1 0.0 86 0 0 1028.7 989.1
23 21.03 ЮЗ 3
{4}
н/о н/о +2.7 +0.1 83 -1 -1 1028.5 989.0
01 22.03 Ю 3
{5}
н/о н/о +1.5 -0.7 85 -3 -3 1027.3 987.7
02 22.03 З 1
{4}
н/о н/о +0.6 -1.5 86 -1 -1 1027.1 987.3
03 22.03 З 1
{3}
н/о н/о +0.9 -1.5 84 -1 -1 1026.3 986.7
04 22.03 штиль 0
{3}
н/о н/о +0.4 -1.5 87 -1 -1 1026.7 987.0
05 22.03 Ю 3
{6}
н/о н/о +2.2 -3.1 68 -2 -2 1024.4 985.0
06 22.03 Ю 5
{8}
н/о н/о +3.4 -5.0 54 -1 -1 1022.7 983.5 +0.2 +3.4
07 22.03 ЮЗ 3
{11}
н/о н/о +4.3 -6.0 47 +1 +1 1021.5 982.5
08 22.03 Ю 7
{13}
н/о н/о +3.9 -2.3 64 -2 -2 1021.2 982.1
09 22.03 Ю 5
{13}
н/о н/о +3.8 -0.6 73 -1 -1 1020.0 981.0
10 22.03 Ю 7
{11}
н/о н/о +5.4 -0.4 66 0 0 1018.3 979.6
11 22.03 Ю 9
{14}
н/о н/о +5.7 +0.9 71 0 0 1016.4 977.8
12 22.03 Ю 6
{16}
н/о н/о +6.0 +2.5 78 +1 +1 1014.7 976.2
13 22.03 Ю 6
{17}
н/о н/о +5.5 +3.8 89 0 0 1014.1 975.5
14 22.03 Ю 8
{15}
н/о н/о +6.1 +4.4 89 +1 +1 1012.1 973.7
15 22.03 Ю 7
{17}
н/о н/о +6.3 +4.9 91 +1 +1 1011.5 973.1
16 22.03 Ю 9
{15}
н/о н/о +6.5 +4.8 89 +1 +1 1010.3 972.0
17 22.03 ЮЗ 9
{17}
н/о н/о +5.9 +4.4 90 0 0 1009.3 971.0
18 22.03 ЮЗ 8
{17}
н/о н/о +5.4 +3.9 90 -0 -0 1009.1 970.7 +3.4 +6.7
19 22.03 ЮЗ 8
{14}
н/о н/о +4.7 +3.4 91 -1 -1 1008.7 970.3
20 22.03 ЮЗ 4
{12}
н/о н/о +4.4 +3.4 93 -0 -0 1008.7 970.2
21 22.03 ЮЗ 3
{11}
н/о н/о +3.3 +2.4 94 -1 -1 1008.5 969.8
22 22.03 З 2
{11}
н/о н/о +3.1 +2.2 94 -0 -0 1008.6 970.0
23 22.03 ЮЗ 6
{12}
н/о н/о +4.2 +1.9 85 -1 -1 1008.3 969.8
00 23.03 ЮЗ 6
{16}
н/о н/о +2.4 +1.1 91 -4 -4 1008.5 969.7
01 23.03 Ю 7
{13}
н/о н/о +2.9 +0.3 83 -3 -3 1008.1 969.5
02 23.03 ЮЗ 7
{12}
н/о н/о +2.2 -0.2 84 -4 -4 1008.7 969.9
03 23.03 З 7
{16}
н/о н/о +2.4 -0.7 80 -4 -4 1008.1 969.3
04 23.03 З 7
{14}
н/о н/о +1.7 -0.4 86 -5 -5 1009.0 970.2
05 23.03 ЮЗ 8
{15}
н/о н/о +2.7 -2.8 67 -4 -4 1008.5 969.8
06 23.03 З 7
{20}
н/о н/о +1.6 -0.8 84 -5 -5 1009.0 970.1 +1.0 +5.4
07 23.03 З 6
{14}
н/о н/о +1.4 -1.0 84 -5 -5 1009.3 970.4
08 23.03 ЮЗ 8
{18}
н/о н/о +2.6 -2.1 71 -4 -4 1008.9 970.1
09 23.03 З 10
{21}
н/о н/о +0.3 -1.7 86 -8 -8 1010.3 971.2
10 23.03 ЮЗ 5
{14}
н/о н/о +1.8 -1.1 81 -4 -4 1010.6 971.6
11 23.03 ЮЗ 7
{16}
н/о н/о +3.2 -1.5 71 -3 -3 1010.0 971.3
12 23.03 З 5
{21}
н/о н/о +1.9 -1.3 79 -4 -4 1010.4 971.5
13 23.03 З 4
{21}
н/о н/о +1.2 -1.3 83 -4 -4 1011.9 972.8
14 23.03 З 8
{14}
н/о н/о +0.9 -1.0 87 -6 -6 1012.6 973.5
15 23.03 З 9
{15}
н/о н/о +2.1 -2.0 74 -5 -5 1012.8 973.8
16 23.03 З 9
{16}
н/о н/о +1.7 -2.8 72 -5 -5 1014.1 975.0
17 23.03 З 9
{16}
н/о н/о +1.3 -2.3 77 -6 -6 1015.4 976.2
18 23.03 З 5
{21}
н/о н/о +1.5 -1.7 79 -4 -4 1016.0 976.8 +0.1 +3.5
19 23.03 З 6
{13}
н/о н/о +1.0 -1.9 81 -5 -5 1017.6 978.3
20 23.03 З 6
{14}
н/о н/о +1.3 -2.6 75 -5 -5 1018.4 979.1
21 23.03 ЮЗ 2
{10}
н/о н/о 0.0 -1.0 93 -4 -4 1019.3 979.8
22 23.03 ЮЗ 3
{4}
н/о н/о +0.9 -1.3 85 -4 -4 1019.5 980.1
23 23.03 ЮВ 2
{4}
н/о н/о +0.8 -0.8 89 -3 -3 1018.8 979.4
00 24.03 З 2
{14}
н/о н/о +0.7 -0.4 92 -3 -3 1018.6 979.2
01 24.03 Ю 2
{4}
н/о н/о +0.9 +0.1 94 -3 -3 1017.5 978.1
02 24.03 ЮЗ 2
{5}
н/о н/о +0.8 +0.1 95 -3 -3 1016.9 977.6
03 24.03 ЮЗ 4
{7}
н/о н/о +1.8 +0.6 92 -3 -3 1015.5 976.4
04 24.03 ЮЗ 6
{13}
н/о н/о +1.3 +0.3 93 -5 -5 1015.3 976.1
05 24.03 ЮЗ 1
{6}
н/о н/о +1.2 +0.5 95 -1 -1 1014.4 975.3
06 24.03 ЮЗ 2
{13}
н/о н/о +1.0 +0.3 95 -3 -3 1013.9 974.7 -0.1 +1.9
07 24.03 Ю 3
{7}
н/о н/о +0.9 +0.3 96 -4 -4 1013.4 974.3
08 24.03 ЮЗ 2
{6}
н/о н/о +0.5 -0.2 95 -3 -3 1013.2 974.0
09 24.03 Ю 2
{3}
н/о н/о +0.8 +0.1 95 -3 -3 1012.3 973.2
10 24.03 ЮЗ 4
{7}
н/о н/о +1.5 +0.8 95 -4 -4 1011.4 972.4
11 24.03 Ю 4
{8}
н/о н/о +0.5 -0.2 95 -5 -5 1011.0 971.8
12 24.03 ЮЗ 2
{8}
н/о н/о +0.6 -0.2 94 -3 -3 1009.9 970.9
13 24.03 З 2
{3}
н/о н/о +1.6 +0.7 94 -2 -2 1008.7 969.8
14 24.03 Ю 2
{5}
н/о н/о +0.9 +0.2 95 -3 -3 1007.8 968.8
15 24.03 Ю 1
{3}
н/о н/о +0.7 0.0 95 -1 -1 1006.6 967.7
16 24.03 ЮЗ 2
{3}
н/о н/о +0.4 -0.2 96 -3 -3 1006.0 967.1
17 24.03 СЗ 1
{2}
н/о н/о +0.5 -0.2 95 -2 -2 1005.4 966.5
18 24.03 ЮЗ 2
{5}
н/о н/о +0.2 -0.2 97 -4 -4 1005.3 966.4 +0.2 +2.5
19 24.03 ЮЗ 1
{3}
н/о н/о +0.2 -0.2 97 -2 -2 1005.6 966.7
20 24.03 СЗ 2
{5}
н/о н/о +0.5 -0.1 96 -3 -3 1006.3 967.3
21 24.03 З 3
{4}
н/о н/о +0.2 -0.2 97 -5 -5 1006.8 967.8
22 24.03 С 2
{3}
н/о н/о 0.0 -0.4 97 -4 -4 1007.7 968.6
23 24.03 С 2
{3}
н/о н/о -0.1 -0.5 97 -4 -4 1008.6 969.5
00 25.03 С 2
{5}
н/о н/о -0.2 -0.6 97 -4 -4 1009.7 970.5
01 25.03 С 2
{2}
н/о н/о +0.2 -0.4 96 -4 -4 1010.7 971.5
02 25.03 С 2
{3}
н/о н/о -0.5 -1.1 96 -4 -4 1011.7 972.4
03 25.03 ЮЗ 1
{5}
н/о н/о -0.2 -1.1 94 -2 -2 1013.0 973.7
04 25.03 ЮЗ 1
{5}
н/о н/о -0.4 -1.3 94 -3 -3 1014.4 975.0
05 25.03 С 4
{5}
н/о н/о -0.2 -0.9 95 -6 -6 1015.5 976.1
06 25.03 С 4
{6}
н/о н/о -0.4 -1.5 92 -6 -6 1016.9 977.4 -1.0 +0.5
07 25.03 В 2
{5}
н/о н/о +0.6 -1.3 87 -3 -3 1018.0 978.6
08 25.03 В 2
{5}
н/о н/о +2.2 -0.4 83 -1 -1 1018.7 979.5
09 25.03 С 2
{3}
н/о н/о +2.2 0.0 85 -1 -1 1019.5 980.4
10 25.03 СЗ 2
{3}
н/о н/о +3.2 -0.2 78 0 0 1020.3 981.2
11 25.03 З 3
{5}
н/о н/о +4.2 -0.2 73 +1 +1 1021.1 982.1
12 25.03 СЗ 4
{7}
н/о н/о +2.2 -2.9 69 -2 -2 1021.7 982.4
13 25.03 СЗ 6
{9}
н/о н/о +3.2 -4.9 55 -2 -2 1021.7 982.5
14 25.03 СЗ 5
{9}
н/о н/о +3.1 -4.6 57 -2 -2 1022.0 982.8
15 25.03 З 4
{5}
н/о н/о +3.0 -3.5 62 -1 -1 1021.8 982.7
16 25.03 З 3
{7}
н/о н/о +2.5 -2.6 69 -1 -1 1021.6 982.4
17 25.03 З 5
{7}
н/о н/о +0.9 -0.7 89 -5 -5 1021.8 982.3
18 25.03 З 4
{11}
н/о н/о 0.0 -0.5 96 -6 -6 1022.3 982.7 -0.2 +5.6
19 25.03 З 5
{11}
н/о н/о +0.9 -3.4 73 -5 -5 1022.3 982.8
20 25.03 З 2
{8}
н/о н/о +0.9 -2.7 77 -2 -2 1022.4 982.9
21 25.03 З 5
{9}
н/о н/о +1.0 -3.3 73 -5 -5 1022.4 982.9
22 25.03 З 4
{10}
н/о н/о +0.8 -4.4 68 -4 -4 1022.7 983.2
23 25.03 Ю 2
{8}
н/о н/о +0.2 -4.0 73 -3 -3 1022.8 983.2
00 26.03 ЮВ 2
{11}
н/о н/о +0.1 -4.5 71 -3 -3 1022.8 983.1
01 26.03 С 1
{3}
н/о н/о +0.1 -4.5 71 -2 -2 1022.8 983.1
02 26.03 СЗ 2
{3}
н/о н/о -0.2 -3.6 78 -4 -4 1022.6 982.9
03 26.03 С 4
{5}
н/о н/о +0.1 -4.5 71 -5 -5 1022.4 982.8
04 26.03 ЮЗ 1
{4}
н/о н/о -0.4 -3.8 78 -2 -2 1022.1 982.4
05 26.03 С 1
{2}
н/о н/о -1.8 -4.2 84 -4 -4 1021.9 982.0
06 26.03 З 1
{5}
н/о н/о -1.3 -3.8 83 -3 -3 1021.8 982.0 -1.8 +1.4
07 26.03 штиль 0
{2}
н/о н/о -0.4 -3.2 81 -1 -1 1021.6 981.9
08 26.03 ЮЗ 1
{3}
н/о н/о +1.1 -2.6 76 -1 -1 1020.9 981.5
09 26.03 штиль 0
{4}
н/о н/о +0.7 -1.8 83 -0 -0 1021.0 981.5
10 26.03 штиль 0
{1}
н/о н/о +0.8 -1.3 86 -0 -0 1020.9 981.4
11 26.03 З 1
{2}
н/о н/о +0.5 -1.4 87 -1 -1 1020.2 980.7
12 26.03 Ю 1
{4}
н/о н/о +0.5 -0.8 91 -2 -2 1019.6 980.1
13 26.03 ЮЗ 2
{3}
н/о н/о +1.0 -0.6 89 -3 -3 1019.1 979.8
14 26.03 Ю 1
{3}
н/о н/о +1.1 -0.2 91 -1 -1 1018.8 979.4
15 26.03 ЮЗ 2
{3}
н/о н/о +1.2 +0.2 93 -2 -2 1018.1 978.8
16 26.03 З 2
{4}
н/о н/о +1.6 +0.7 94 -2 -2 1017.7 978.4
17 26.03 ЮВ 1
{2}
н/о н/о +1.8 +1.1 95 -0 -0 1017.4 978.2
18 26.03 ЮЗ 1
{4}
н/о н/о +1.5 +0.9 96 -1 -1 1017.4 978.2 -1.3 +1.9
21 26.03 СВ 1
{2}
н/о н/о +1.6 +1.2 97 -0 -0 1018.8 979.5

 

Местоположение метеостанции Флурё аэропорт (Норвегия): широта 61.39 долгота 5.76 высота над уровнем моря 321 м.

В архиве по умолчанию представлена погода во Флурё аэропорту за последнюю неделю. Архивные данные за месяц целиком и за предыдущие месяцы, начиная с января 2011 года, Вы можете получить, выбрав интересующий диапазон дат из раскрывающегося списка и нажав кнопку "Ввод!".


*Определитесь, кто Вы:
робот инопланетянин человек

Внимание! Время в таблицах - всемирное. Для получения местного времени необходимо прибавить поправку, которая равна 1 ч.

Смотрите также архив погоды в соседних городах и на ближайших метеорологических станциях:

Погода во Флурё (Норвегия) (12 км)
Погода в Фурунесете (Норвегия) (40 км)
Погода в Флоро аэропорту (Норвегия) (44 км)
Погода в Такле (Норвегия) (45 км)
Погода в Сандан аэропорту (Норвегия) (52 км)
Погода в Вангснесе (Норвегия) (53 км)
Погода во Фьерлэнде (Норвегия) (54 км)
Погода в Модалене (Норвегия) (60 км)
Погода на Маяке Ytteroyane (Норвегия) (61 км)
Погода в Стрын-Крокене (Норвегия) (73 км)

Пояснения к столбцам:

Ветер - указаны скорость ветра в м/с - средняя за 10 мин, порывы в срок и между сроками (в фигурных скобках) и направление, откуда дует ветер: С - северный, СВ - северо-восточный, В - восточный, ЮВ - юго-восточный, Ю - южный, ЮЗ - юго-западный, З - западный, СЗ - северо-западный.
Видимость - горизонтальная дальность видимости в метрах или километрах. При видимости от 1 до 10 км при отсутствии осадков обычно наблюдается дымка, при ухудшении видимости до 1 км и менее - туман. В сухую погоду видимость может ухудшаться дымом, пылью или мглою.
Явления - указаны атмосферные явления, наблюдавшиеся в срок или в последний час перед сроком; фигурными скобками обозначены явления, наблюдавшиеся между сроками (за 1-3 часа до срока); квадратными скобками обозначены град или гололедные отложения с указанием их диаметра в мм.
Облачность - указаны через наклонную черту общая и нижняя облачность в баллах и высота нижней границы облаков в метрах; квадратными скобками обозначены формы облаков: Ci - перистые, Cs - перисто-слоистые, Cc - перисто-кучевые, Ac - высококучевые, As - высокослоистые, Sc - слоисто-кучевые, Ns - слоисто-дождевые, Cu - кучевые, Cb - кучево-дождевые. Подробнее классификацию облаков см. в Атласе облаков (PDF).
T - Температура воздуха - температура, измеренная на высоте 2 м над землей.
Td - Температура точки росы - температура, при понижении до которой содержащийся в воздухе водяной пар достигнет насыщения.
f - Относительная влажность воздуха - влажноcть воздуха, измеренная на высоте 2 м над землей.
Te - Эффективная температура - температура, которую ощущает одетый по сезону человек в тени. Характеристика душности погоды. При расчете учитывается влияние влажности воздуха и скорости ветра на теплоощущения человека.
Tes - Эффективная температура на солнце - температура, которую ощущает человек, с поправкой на солнечный нагрев. Характеристика знойности погоды. Зависит от высоты солнца над горизонтом, облачности и скорости ветра. Ночью, в пасмурную погоду, а также при ветре 12 м/с и более поправка равна нулю.
P - Атмосферное давление - приведенное к уровню моря атмосферное давление.
Po - Атмосферное давление - измеренное на уровне метеостанции атмосферное давление.
Tmin - Минимальная температура - минимум температуры воздуха на высоте 2 м над землей.
Tmax - Максимальная температура - максимум температуры воздуха на высоте 2 м над землей.
R - Количество осадков - Количество выпавших осадков за период времени, мм. При наведении курсора мыши на число - период времени, за который выпало указанное количество осадков.
R24 - Количество осадков - Количество выпавших осадков за 24 часа, мм.
S - Снежный покров - Высота снежного покрова, см. При наведении курсора мыши на число - состояние снежного покрова и степень покрытия местности в баллах.